Terminal Aerodrome Forecast
Issued by NWS

Home | Current Version | Previous Version | Text Only | Print | Product List | Glossary On
Versions: 1 2 3 4 5 6 7 8 9 10 11 12 13 14 15 16 17 18 19 20 21 22 23 24 25 26 27 28 29 30 31 32 33 34 35 36 37 38 39 40 41 42 43 44 45 46 47
000
FTUS42 KMFL 062343
TAFFXE
TAF
KFXE 062343Z 0700/0724 09009KT P6SM VCSH FEW035 SCT070
     FM070400 02008KT P6SM SCT020 BKN050
      TEMPO 0708/0712 BKN015
     FM071300 05010G15KT P6SM SCT020 BKN050=

USA.gov is the U.S. government's official web portal to all federal, state and local government web resources and services.